Montello, Wisconsin, United States (53949)
Lat: 43.79N, Lon: 89.32W
Wx Zone: WIZ046
Local Info
Past Weather Observations for Monday, March 23, 2015

NOTE: This archive is for the closest National Weather Service station to Montello. Information may differ from the station used for current weather conditions.

Click here for Long-term Archive

Time Weather Temperature Dewpoint Humidity Pressure Winds Precip Visibility
23:50
Clear
23°F / -5°C 18°F / -8°C 80% 30.27 in
(1025 mb)
Calm - 10SM
23:30
Clear
23°F / -5°C 18°F / -8°C 80% 30.27 in
(1025 mb)
E 3.5 mph
(E 6 kph)
- 10SM
23:10
Clear
23°F / -5°C 18°F / -8°C 80% 30.27 in
(1025 mb)
E 3.5 mph
(E 6 kph)
- 10SM
22:50
Clear
25°F / -4°C 18°F / -8°C 74% 30.27 in
(1025 mb)
Calm - 10SM
22:30
Clear
25°F / -4°C 19°F / -7°C 80% 30.27 in
(1025 mb)
ESE 3.5 mph
(ESE 6 kph)
- 10SM
22:10
Clear
25°F / -4°C 19°F / -7°C 80% 30.27 in
(1025 mb)
ESE 3.5 mph
(ESE 6 kph)
- 10SM
21:50
Clear
27°F / -3°C 19°F / -7°C 74% 30.27 in
(1025 mb)
SE 3.5 mph
(SE 6 kph)
- 10SM
21:30
Clear
27°F / -3°C 19°F / -7°C 74% 30.27 in
(1025 mb)
ESE 3.5 mph
(ESE 6 kph)
- 10SM
21:10
Clear
27°F / -3°C 19°F / -7°C 74% 30.27 in
(1025 mb)
E 3.5 mph
(E 6 kph)
- 10SM
20:50
Clear
28°F / -2°C 19°F / -7°C 69% 30.27 in
(1025 mb)
Calm - 10SM
20:30
Clear
28°F / -2°C 21°F / -6°C 74% 30.27 in
(1025 mb)
SE 3.5 mph
(SE 6 kph)
- 10SM
20:10
Clear
28°F / -2°C 21°F / -6°C 74% 30.24 in
(1024 mb)
SE 3.5 mph
(SE 6 kph)
- 10SM
19:50
Clear
27°F / -3°C 21°F / -6°C 80% 30.24 in
(1024 mb)
SE 3.5 mph
(SE 6 kph)
- 10SM
19:30
Clear
27°F / -3°C 21°F / -6°C 80% 30.24 in
(1024 mb)
Calm - 10SM
19:10
Clear
30°F / -1°C 21°F / -6°C 69% 30.24 in
(1024 mb)
Calm - 10SM
18:50
Clear
30°F / -1°C 23°F / -5°C 75% 30.24 in
(1024 mb)
Calm - 10SM
18:30
Partly Cloudy
32°F / 0°C 23°F / -5°C 69% 30.24 in
(1024 mb)
S 3.5 mph
(S 6 kph)
- 10SM
18:10
Overcast
32°F / 0°C 25°F / -4°C 75% 30.24 in
(1024 mb)
S 3.5 mph
(S 6 kph)
- 10SM
17:50
Overcast
34°F / 1°C 23°F / -5°C 65% 30.24 in
(1024 mb)
S 4.6 mph
(S 7 kph)
- 10SM
17:30
Overcast
34°F / 1°C 23°F / -5°C 65% 30.24 in
(1024 mb)
S 4.6 mph
(S 7 kph)
- 10SM
17:10
Overcast
34°F / 1°C 21°F / -6°C 60% 30.24 in
(1024 mb)
SSE 3.5 mph
(SSE 6 kph)
- 10SM
16:50
Overcast
36°F / 2°C 21°F / -6°C 56% 30.24 in
(1024 mb)
SSE 3.5 mph
(SSE 6 kph)
- 10SM
16:30
Overcast
36°F / 2°C 21°F / -6°C 56% 30.24 in
(1024 mb)
SSE 3.5 mph
(SSE 6 kph)
- 10SM
16:10
Overcast
36°F / 2°C 21°F / -6°C 56% 30.24 in
(1024 mb)
SE 3.5 mph
(SE 6 kph)
- 10SM
15:50
Overcast
36°F / 2°C 19°F / -7°C 52% 30.24 in
(1024 mb)
SSE 4.6 mph
(SSE 7 kph)
- 10SM
15:30
Overcast
36°F / 2°C 19°F / -7°C 52% 30.24 in
(1024 mb)
SE 6.9 mph
(SE 11 kph)
- 10SM
15:10
Overcast
36°F / 2°C 19°F / -7°C 52% 30.24 in
(1024 mb)
SE 5.8 mph
(SE 9 kph)
- 10SM
14:50
Overcast
36°F / 2°C 19°F / -7°C 52% 30.24 in
(1024 mb)
SE 8.1 mph
(SE 13 kph)
- 10SM
14:30
Overcast
36°F / 2°C 21°F / -6°C 56% 30.24 in
(1024 mb)
ESE 6.9 mph
(ESE 11 kph)
- 10SM
14:10
Overcast
36°F / 2°C 21°F / -6°C 56% 30.24 in
(1024 mb)
SE 8.1 mph
(SE 13 kph)
- 10SM
13:50
Overcast
34°F / 1°C 21°F / -6°C 60% 30.24 in
(1024 mb)
E 5.8 mph
(E 9 kph)
- 10SM
13:30
Overcast
34°F / 1°C 21°F / -6°C 60% 30.27 in
(1025 mb)
E 6.9 mph
(E 11 kph)
- 10SM
13:10
Overcast
32°F / 0°C 21°F / -6°C 64% 30.27 in
(1025 mb)
E 5.8 mph
(E 9 kph)
- 10SM
12:50
Overcast
32°F / 0°C 21°F / -6°C 64% 30.27 in
(1025 mb)
ESE 3.5 mph
(ESE 6 kph)
- 10SM
12:30
Overcast
32°F / 0°C 21°F / -6°C 64% 30.27 in
(1025 mb)
SE 5.8 mph
(SE 9 kph)
- 10SM
12:10
Overcast
32°F / 0°C 21°F / -6°C 64% 30.3 in
(1026 mb)
E 6.9 mph
(E 11 kph)
- 10SM
11:50
Overcast
32°F / 0°C 21°F / -6°C 64% 30.3 in
(1026 mb)
E 5.8 mph
(E 9 kph)
- 10SM
11:30
Overcast
30°F / -1°C 21°F / -6°C 69% 30.27 in
(1025 mb)
SE 9.2 mph
(SE 15 kph)
- 10SM
11:10
Overcast
30°F / -1°C 23°F / -5°C 75% 30.27 in
(1025 mb)
E 11.5 mph
(E 19 kph)
- 10SM
10:50
Overcast
30°F / -1°C 23°F / -5°C 75% 30.27 in
(1025 mb)
ESE 12.7 mph
(ESE 20 kph)
- 10SM
10:30
Overcast
28°F / -2°C 23°F / -5°C 80% 30.3 in
(1026 mb)
E 10.4 mph
(E 17 kph)
- 10SM
10:10
Overcast
Unknown Precip
28°F / -2°C 23°F / -5°C 80% 30.3 in
(1026 mb)
E 6.9 mph
(E 11 kph)
- 7SM
09:50
Overcast
Unknown Precip
28°F / -2°C 23°F / -5°C 80% 30.3 in
(1026 mb)
ESE 10.4 mph
(ESE 17 kph)
- 4SM
09:30
Overcast
Light Snow
28°F / -2°C 23°F / -5°C 80% 30.3 in
(1026 mb)
E 10.4 mph
(E 17 kph)
- 1 1/2SM
09:10
Overcast
Light Snow
28°F / -2°C 21°F / -6°C 74% 30.3 in
(1026 mb)
E 12.7 mph
(E 20 kph)
- 2 1/2SM
08:50
Overcast
Light Snow
27°F / -3°C 23°F / -5°C 86% 30.27 in
(1025 mb)
E 13.8 mph
(E 22 kph)
- 3SM
08:30
Overcast
Light Snow
27°F / -3°C 23°F / -5°C 86% 30.27 in
(1025 mb)
E 8.1 mph
(E 13 kph)
- 4SM
08:10
Overcast
Light Snow
27°F / -3°C 23°F / -5°C 86% 30.27 in
(1025 mb)
E 10.4 mph
(E 17 kph)
- 5SM
07:50
Overcast
Light Snow
27°F / -3°C 23°F / -5°C 86% 30.27 in
(1025 mb)
E 12.7 mph
(E 20 kph)
- 2SM
07:30
Overcast
Light Snow
25°F / -4°C 23°F / -5°C 93% 30.27 in
(1025 mb)
E 13.8 mph
(E 22 kph)
- 1 1/2SM
07:10
Overcast
Light Snow
25°F / -4°C 23°F / -5°C 93% 30.27 in
(1025 mb)
E 11.5 mph
(E 19 kph)
- 1SM
06:50
Overcast
Light Snow
25°F / -4°C 23°F / -5°C 93% 30.27 in
(1025 mb)
E 12.7 mph
(E 20 kph)
- 1 1/2SM
06:30
Overcast
Light Snow
25°F / -4°C 23°F / -5°C 93% 30.27 in
(1025 mb)
E 9.2 mph
(E 15 kph)
- 1SM
06:10
Overcast
Light Snow
25°F / -4°C 23°F / -5°C 93% 30.27 in
(1025 mb)
ENE 9.2 mph
(ENE 15 kph)
- 1 1/4SM
05:50
Overcast
Light Snow
25°F / -4°C 23°F / -5°C 93% 30.27 in
(1025 mb)
E 9.2 mph
(E 15 kph)
0.01 in
(0.25 mm)
3/4SM
05:30
Overcast
Light Snow
25°F / -4°C 23°F / -5°C 93% 30.27 in
(1025 mb)
ENE 6.9 mph
(ENE 11 kph)
- 1SM
05:10
Overcast
Light Snow
25°F / -4°C 23°F / -5°C 93% 30.27 in
(1025 mb)
E 10.4 mph
(E 17 kph)
- 1SM
04:50
Overcast
Light Snow
25°F / -4°C 23°F / -5°C 93% 30.27 in
(1025 mb)
E 10.4 mph
(E 17 kph)
- 1 1/4SM
04:30
Overcast
Light Snow
25°F / -4°C 23°F / -5°C 93% 30.27 in
(1025 mb)
E 6.9 mph
(E 11 kph)
- 1SM
04:10
Overcast
Light Snow
25°F / -4°C 23°F / -5°C 93% 30.27 in
(1025 mb)
ESE 10.4 mph
(ESE 17 kph)
- 1SM
03:50
Overcast
Light Snow
25°F / -4°C 23°F / -5°C 93% 30.27 in
(1025 mb)
E 8.1 mph
(E 13 kph)
- 1 3/4SM
03:30
Overcast
Snow
25°F / -4°C 23°F / -5°C 93% 30.27 in
(1025 mb)
ESE 8.1 mph
(ESE 13 kph)
- 1/2SM
03:10
Overcast
Light Snow
27°F / -3°C 23°F / -5°C 86% 30.27 in
(1025 mb)
E 10.4 mph
(E 17 kph)
- 1SM
02:50
Overcast
Light Snow
27°F / -3°C 21°F / -6°C 80% 30.27 in
(1025 mb)
E 9.2 mph
(E 15 kph)
- 1SM
02:30
Overcast
Light Snow
28°F / -2°C 19°F / -7°C 69% 30.27 in
(1025 mb)
E 13.8 mph
(E 22 kph)
- 1 3/4SM
02:10
Overcast
Light Snow
28°F / -2°C 21°F / -6°C 74% 30.27 in
(1025 mb)
ENE 8.1 mph
(ENE 13 kph)
- 3SM
01:50
Overcast
Unknown Precip
27°F / -3°C 23°F / -5°C 86% 30.27 in
(1025 mb)
NE 4.6 mph
(NE 7 kph)
- 3SM
01:30
Overcast
28°F / -2°C 23°F / -5°C 80% 30.27 in
(1025 mb)
Calm - 10SM
01:10
Overcast
28°F / -2°C 23°F / -5°C 80% 30.27 in
(1025 mb)
Calm - 10SM
00:50
Overcast
28°F / -2°C 23°F / -5°C 80% 30.27 in
(1025 mb)
SE 3.5 mph
(SE 6 kph)
- 10SM
00:30
Overcast
Unknown Precip
28°F / -2°C 25°F / -4°C 86% 30.24 in
(1024 mb)
E 3.5 mph
(E 6 kph)
- 10SM
00:10
Overcast
Unknown Precip
28°F / -2°C 25°F / -4°C 86% 30.24 in
(1024 mb)
Calm - 10SM
Time Weather Temperature Dewpoint Humidity Pressure Winds Precip Visibility


Weather for websites

WeatherForYou.com, LLC is not responsible for any damages or problems caused by this service. Current weather conditions are obtained from the closest station including government and personal stations which may have varying degrees of accuracy. Weather forecasts are derived from the NOAA NDFD. Like all things, this site belongs to Jesus Christ... He just trusts me to maintain it. If you have any questions or comments email webmaster@weatherforyou.com

Copyright © 2015, WeatherForYou.com LLC. All rights reserved.